Time,TemperatureF,DewpointF,PressureIn,WindDirection,WindDirectionDegrees,WindSpeedMPH,WindSpeedGustMPH,Humidity,HourlyPrecipIn,Conditions,Clouds,dailyrainin,SoftwareType,DateUTC
2013-05-11 00:03:00,63.0,61.0,-100.00,SW,220,1.0,4.0,94,0.00,,,-99.99,,2013-05-11 04:03:00,
2013-05-11 00:12:00,63.0,61.0,-100.00,SSW,210,1.0,4.0,94,0.00,,,-99.99,,2013-05-11 04:12:00,
2013-05-11 00:23:00,63.0,61.0,-100.00,WNW,295,1.0,3.0,94,0.00,,,-99.99,,2013-05-11 04:23:00,
2013-05-11 00:33:00,63.0,61.0,-100.00,West,265,0.0,2.0,94,0.00,,,-99.99,,2013-05-11 04:33:00,
2013-05-11 00:43:00,63.0,61.0,-100.00,West,275,1.0,2.0,94,0.55,,,-99.99,,2013-05-11 04:43:00,
2013-05-11 00:52:00,63.0,61.0,-100.00,NW,310,1.0,3.0,94,0.55,,,-99.99,,2013-05-11 04:52:00,
2013-05-11 01:02:00,63.0,61.0,-100.00,North,0,1.0,2.0,95,2.83,,,-99.99,,2013-05-11 05:02:00,
2013-05-11 01:12:00,63.0,61.0,-100.00,ENE,60,1.0,2.0,95,2.24,,,-99.99,,2013-05-11 05:12:00,
2013-05-11 01:22:00,62.0,60.0,-100.00,NE,45,3.0,7.0,91,2.24,,,-99.99,,2013-05-11 05:22:00,
2013-05-11 01:32:00,62.0,59.0,-100.00,ESE,115,2.0,7.0,92,5.67,,,-99.99,,2013-05-11 05:32:00,
2013-05-11 01:42:00,61.0,59.0,-100.00,NE,50,1.0,7.0,92,0.00,,,-99.99,,2013-05-11 05:42:00,
2013-05-11 01:52:00,61.0,58.0,-100.00,ENE,70,4.0,7.0,90,0.00,,,-99.99,,2013-05-11 05:52:00,
2013-05-11 02:02:00,61.0,58.0,-100.00,ENE,60,1.0,5.0,91,0.00,,,-99.99,,2013-05-11 06:02:00,
2013-05-11 02:12:00,61.0,58.0,-100.00,East,90,2.0,6.0,91,0.00,,,-99.99,,2013-05-11 06:12:00,
2013-05-11 02:21:00,61.0,58.0,-100.00,ENE,60,7.0,9.0,90,0.00,,,-99.99,,2013-05-11 06:21:00,
2013-05-11 02:32:00,60.0,57.0,-100.00,ENE,75,6.0,11.0,88,0.00,,,-99.99,,2013-05-11 06:32:00,
2013-05-11 02:42:00,60.0,56.0,-100.00,ENE,70,6.0,10.0,87,0.00,,,-99.99,,2013-05-11 06:42:00,
2013-05-11 02:52:00,59.0,55.0,-100.00,ENE,60,5.0,12.0,88,0.00,,,-99.99,,2013-05-11 06:52:00,
2013-05-11 03:02:00,58.0,55.0,-100.00,ENE,70,5.0,11.0,87,0.00,,,-99.99,,2013-05-11 07:02:00,
2013-05-11 03:12:00,58.0,54.0,-100.00,ENE,75,4.0,11.0,88,0.00,,,-99.99,,2013-05-11 07:12:00,
2013-05-11 03:21:00,57.0,54.0,-100.00,ENE,75,4.0,7.0,89,0.00,,,-99.99,,2013-05-11 07:21:00,
2013-05-11 03:32:00,57.0,53.0,-100.00,ENE,65,5.0,11.0,88,0.00,,,-99.99,,2013-05-11 07:32:00,
2013-05-11 03:42:00,56.0,53.0,-100.00,ENE,65,4.0,9.0,89,0.00,,,-99.99,,2013-05-11 07:42:00,
2013-05-11 03:52:00,56.0,53.0,-100.00,East,80,3.0,7.0,88,0.00,,,-99.99,,2013-05-11 07:52:00,
2013-05-11 04:02:00,56.0,53.0,-100.00,East,80,6.0,10.0,89,0.00,,,-99.99,,2013-05-11 08:02:00,
2013-05-11 04:12:00,56.0,53.0,-100.00,East,85,6.0,11.0,88,0.00,,,-99.99,,2013-05-11 08:12:00,
2013-05-11 04:21:00,56.0,53.0,-100.00,East,85,6.0,12.0,89,0.00,,,-99.99,,2013-05-11 08:21:00,
2013-05-11 04:32:00,56.0,52.0,-100.00,ENE,75,9.0,12.0,88,0.00,,,-99.99,,2013-05-11 08:32:00,
2013-05-11 04:42:00,55.0,52.0,-100.00,ENE,75,5.0,8.0,88,0.00,,,-99.99,,2013-05-11 08:42:00,
2013-05-11 04:52:00,55.0,51.0,-100.00,ENE,70,6.0,9.0,87,0.00,,,-99.99,,2013-05-11 08:52:00,
2013-05-11 05:01:00,55.0,52.0,-100.00,ENE,75,3.0,12.0,87,0.00,,,-99.99,,2013-05-11 09:01:00,
2013-05-11 05:11:00,55.0,51.0,-100.00,ENE,65,6.0,9.0,86,0.00,,,-99.99,,2013-05-11 09:11:00,
2013-05-11 05:21:00,55.0,50.0,-100.00,ENE,65,6.0,12.0,85,0.00,,,-99.99,,2013-05-11 09:21:00,
2013-05-11 05:32:00,55.0,51.0,-100.00,ENE,75,4.0,9.0,85,0.00,,,-99.99,,2013-05-11 09:32:00,
2013-05-11 05:42:00,55.0,51.0,-100.00,ENE,70,4.0,9.0,86,0.00,,,-99.99,,2013-05-11 09:42:00,
2013-05-11 05:52:00,55.0,50.0,-100.00,East,85,6.0,9.0,85,0.00,,,-99.99,,2013-05-11 09:52:00,
2013-05-11 06:03:00,55.0,50.0,-100.00,NNE,30,3.0,8.0,85,0.00,,,-99.99,,2013-05-11 10:03:00,
2013-05-11 06:12:00,54.0,50.0,-100.00,NE,50,4.0,10.0,84,0.00,,,-99.99,,2013-05-11 10:12:00,
2013-05-11 06:22:00,54.0,49.0,-100.00,ENE,60,4.0,7.0,84,0.00,,,-99.99,,2013-05-11 10:22:00,
2013-05-11 06:33:00,54.0,49.0,-100.00,ENE,60,2.0,6.0,84,0.00,,,-99.99,,2013-05-11 10:33:00,
2013-05-11 06:42:00,54.0,49.0,-100.00,NNE,25,6.0,11.0,82,0.00,,,-99.99,,2013-05-11 10:42:00,
2013-05-11 06:52:00,54.0,48.0,-100.00,ENE,60,4.0,11.0,82,0.00,,,-99.99,,2013-05-11 10:52:00,
2013-05-11 07:02:00,54.0,48.0,-100.00,ENE,65,4.0,10.0,82,0.00,,,-99.99,,2013-05-11 11:02:00,
2013-05-11 07:12:00,53.0,48.0,-100.00,ENE,70,4.0,9.0,83,0.00,,,-99.99,,2013-05-11 11:12:00,
2013-05-11 07:22:00,53.0,48.0,-100.00,ENE,70,4.0,9.0,82,0.00,,,-99.99,,2013-05-11 11:22:00,
2013-05-11 07:32:00,53.0,48.0,-100.00,East,85,7.0,12.0,82,0.00,,,-99.99,,2013-05-11 11:32:00,
2013-05-11 07:42:00,53.0,48.0,-100.00,ENE,75,6.0,11.0,83,0.00,,,-99.99,,2013-05-11 11:42:00,
2013-05-11 07:51:00,53.0,48.0,-100.00,NNE,25,7.0,12.0,82,0.00,,,-99.99,,2013-05-11 11:51:00,
2013-05-11 08:01:00,53.0,47.0,-100.00,NE,50,6.0,11.0,81,0.00,,,-99.99,,2013-05-11 12:01:00,
2013-05-11 08:11:00,53.0,47.0,-100.00,ENE,65,6.0,11.0,81,0.00,,,-99.99,,2013-05-11 12:11:00,
2013-05-11 08:22:00,53.0,47.0,-100.00,ENE,65,6.0,9.0,79,0.00,,,-99.99,,2013-05-11 12:22:00,
2013-05-11 08:32:00,53.0,47.0,-100.00,ENE,75,4.0,9.0,79,0.00,,,-99.99,,2013-05-11 12:32:00,
2013-05-11 08:42:00,53.0,47.0,-100.00,ENE,60,3.0,9.0,80,0.00,,,-99.99,,2013-05-11 12:42:00,
2013-05-11 08:51:00,53.0,47.0,-100.00,North,0,1.0,7.0,81,0.00,,,-99.99,,2013-05-11 12:51:00,
2013-05-11 09:02:00,53.0,47.0,-100.00,ENE,60,4.0,9.0,79,0.00,,,-99.99,,2013-05-11 13:02:00,
2013-05-11 09:11:00,53.0,46.0,-100.00,NNE,30,4.0,9.0,78,0.00,,,-99.99,,2013-05-11 13:11:00,
2013-05-11 09:21:00,53.0,47.0,-100.00,NE,35,4.0,9.0,79,0.00,,,-99.99,,2013-05-11 13:21:00,
2013-05-11 09:32:00,53.0,47.0,-100.00,ENE,65,6.0,9.0,79,0.00,,,-99.99,,2013-05-11 13:32:00,
2013-05-11 09:42:00,53.0,47.0,-100.00,NE,40,4.0,9.0,79,0.00,,,-99.99,,2013-05-11 13:42:00,
2013-05-11 09:52:00,53.0,47.0,-100.00,ENE,65,2.0,6.0,79,0.00,,,-99.99,,2013-05-11 13:52:00,
2013-05-11 10:02:00,53.0,46.0,-100.00,NNE,30,2.0,6.0,77,0.00,,,-99.99,,2013-05-11 14:02:00,
2013-05-11 10:11:00,53.0,46.0,-100.00,NE,50,3.0,7.0,76,0.00,,,-99.99,,2013-05-11 14:11:00,
2013-05-11 10:21:00,53.0,46.0,-100.00,NNE,25,4.0,6.0,77,0.00,,,-99.99,,2013-05-11 14:21:00,
2013-05-11 10:32:00,53.0,47.0,-100.00,North,0,3.0,7.0,78,0.00,,,-99.99,,2013-05-11 14:32:00,
2013-05-11 10:42:00,53.0,46.0,-100.00,NE,35,7.0,9.0,79,0.00,,,-99.99,,2013-05-11 14:42:00,
2013-05-11 10:51:00,53.0,46.0,-100.00,NE,45,4.0,9.0,79,0.00,,,-99.99,,2013-05-11 14:51:00,
2013-05-11 11:01:00,53.0,47.0,-100.00,North,350,4.0,7.0,79,0.00,,,-99.99,,2013-05-11 15:01:00,
2013-05-11 11:11:00,53.0,47.0,-100.00,North,5,5.0,7.0,79,0.00,,,-99.99,,2013-05-11 15:11:00,
2013-05-11 11:21:00,52.0,46.0,-100.00,North,0,4.0,10.0,79,0.00,,,-99.99,,2013-05-11 15:21:00,
2013-05-11 11:32:00,53.0,47.0,-100.00,NE,45,2.0,6.0,79,0.00,,,-99.99,,2013-05-11 15:32:00,
2013-05-11 11:43:00,53.0,46.0,-100.00,NNE,20,4.0,7.0,78,0.00,,,-99.99,,2013-05-11 15:43:00,
2013-05-11 11:53:00,54.0,47.0,-100.00,North,0,2.0,6.0,78,0.00,,,-99.99,,2013-05-11 15:53:00,
2013-05-11 12:03:00,54.0,47.0,-100.00,North,0,4.0,6.0,76,0.00,,,-99.99,,2013-05-11 16:03:00,
2013-05-11 12:12:00,54.0,46.0,-100.00,North,5,4.0,7.0,75,0.00,,,-99.99,,2013-05-11 16:12:00,
2013-05-11 12:23:00,54.0,48.0,-100.00,NNW,345,4.0,9.0,79,0.00,,,-99.99,,2013-05-11 16:23:00,
2013-05-11 12:33:00,54.0,47.0,-100.00,North,0,2.0,7.0,77,0.00,,,-99.99,,2013-05-11 16:33:00,
2013-05-11 12:42:00,54.0,47.0,-100.00,NNW,345,4.0,10.0,77,0.00,,,-99.99,,2013-05-11 16:42:00,
2013-05-11 12:52:00,54.0,48.0,-100.00,North,350,3.0,7.0,79,0.00,,,-99.99,,2013-05-11 16:52:00,
2013-05-11 13:02:00,54.0,47.0,-100.00,NNW,330,5.0,10.0,77,0.00,,,-99.99,,2013-05-11 17:02:00,
2013-05-11 13:12:00,54.0,47.0,-100.00,North,0,6.0,9.0,78,0.00,,,-99.99,,2013-05-11 17:12:00,
2013-05-11 13:22:00,53.0,46.0,-100.00,NNE,25,5.0,9.0,77,0.00,,,-99.99,,2013-05-11 17:22:00,
2013-05-11 13:32:00,53.0,47.0,-100.00,North,5,2.0,13.0,79,0.00,,,-99.99,,2013-05-11 17:32:00,
2013-05-11 13:42:00,53.0,47.0,-100.00,North,0,3.0,8.0,78,0.00,,,-99.99,,2013-05-11 17:42:00,
2013-05-11 13:52:00,54.0,47.0,-100.00,North,10,2.0,7.0,78,0.00,,,-99.99,,2013-05-11 17:52:00,
2013-05-11 14:01:00,53.0,47.0,-100.00,NE,35,5.0,10.0,78,0.00,,,-99.99,,2013-05-11 18:01:00,
2013-05-11 14:12:00,53.0,47.0,-100.00,NNE,30,4.0,11.0,80,0.00,,,-99.99,,2013-05-11 18:12:00,
2013-05-11 14:21:00,53.0,47.0,-100.00,NNW,330,5.0,12.0,79,0.00,,,-99.99,,2013-05-11 18:21:00,
2013-05-11 14:32:00,53.0,47.0,-100.00,NNE,20,4.0,10.0,78,0.00,,,-99.99,,2013-05-11 18:32:00,
2013-05-11 14:42:00,54.0,46.0,-100.00,NE,35,5.0,8.0,75,0.00,,,-99.99,,2013-05-11 18:42:00,
2013-05-11 14:52:00,54.0,47.0,-100.00,NNE,30,4.0,7.0,77,0.00,,,-99.99,,2013-05-11 18:52:00,
2013-05-11 15:02:00,54.0,47.0,-100.00,NNW,330,5.0,10.0,78,0.00,,,-99.99,,2013-05-11 19:02:00,
2013-05-11 15:11:00,54.0,47.0,-100.00,North,355,5.0,10.0,76,0.00,,,-99.99,,2013-05-11 19:11:00,
2013-05-11 15:21:00,54.0,46.0,-100.00,North,0,7.0,12.0,76,0.00,,,-99.99,,2013-05-11 19:21:00,
2013-05-11 15:32:00,54.0,46.0,-100.00,North,0,2.0,8.0,74,0.00,,,-99.99,,2013-05-11 19:32:00,
2013-05-11 15:42:00,55.0,46.0,-100.00,North,10,2.0,8.0,73,0.00,,,-99.99,,2013-05-11 19:42:00,
2013-05-11 15:52:00,55.0,46.0,-100.00,North,5,7.0,13.0,73,0.00,,,-99.99,,2013-05-11 19:52:00,
2013-05-11 16:02:00,55.0,47.0,-100.00,North,0,5.0,10.0,73,0.00,,,-99.99,,2013-05-11 20:02:00,
2013-05-11 16:12:00,55.0,47.0,-100.00,NNE,30,2.0,10.0,72,0.00,,,-99.99,,2013-05-11 20:12:00,
2013-05-11 16:22:00,57.0,47.0,-100.00,NE,45,7.0,13.0,68,0.00,,,-99.99,,2013-05-11 20:22:00,
2013-05-11 16:32:00,58.0,47.0,-100.00,NNE,25,7.0,12.0,66,0.00,,,-99.99,,2013-05-11 20:32:00,
2013-05-11 16:42:00,57.0,47.0,-100.00,NE,50,4.0,9.0,70,0.00,,,-99.99,,2013-05-11 20:42:00,
2013-05-11 16:52:00,56.0,47.0,-100.00,North,355,6.0,14.0,70,0.00,,,-99.99,,2013-05-11 20:52:00,
2013-05-11 17:02:00,57.0,47.0,-100.00,NNW,340,4.0,12.0,69,0.00,,,-99.99,,2013-05-11 21:02:00,
2013-05-11 17:11:00,58.0,46.0,-100.00,NE,55,2.0,6.0,65,0.00,,,-99.99,,2013-05-11 21:11:00,
2013-05-11 17:22:00,58.0,47.0,-100.00,North,0,4.0,10.0,68,0.00,,,-99.99,,2013-05-11 21:22:00,
2013-05-11 17:33:00,59.0,47.0,-100.00,NE,50,5.0,11.0,66,0.00,,,-99.99,,2013-05-11 21:33:00,
2013-05-11 17:43:00,58.0,46.0,-100.00,NNE,30,4.0,12.0,65,0.00,,,-99.99,,2013-05-11 21:43:00,
2013-05-11 17:52:00,59.0,47.0,-100.00,NE,55,3.0,7.0,64,0.00,,,-99.99,,2013-05-11 21:52:00,
2013-05-11 18:02:00,59.0,47.0,-100.00,NNW,345,3.0,6.0,64,0.00,,,-99.99,,2013-05-11 22:02:00,
2013-05-11 18:13:00,60.0,47.0,-100.00,NNE,30,3.0,9.0,62,0.00,,,-99.99,,2013-05-11 22:13:00,
2013-05-11 18:23:00,59.0,47.0,-100.00,North,0,6.0,9.0,62,0.00,,,-99.99,,2013-05-11 22:23:00,
2013-05-11 18:33:00,60.0,47.0,-100.00,NNE,20,4.0,12.0,62,0.00,,,-99.99,,2013-05-11 22:33:00,
2013-05-11 18:42:00,60.0,47.0,-100.00,North,5,4.0,9.0,61,0.00,,,-99.99,,2013-05-11 22:42:00,
2013-05-11 18:52:00,61.0,48.0,-100.00,NNW,345,3.0,7.0,61,0.00,,,-99.99,,2013-05-11 22:52:00,
2013-05-11 19:02:00,61.0,47.0,-100.00,NNW,335,3.0,9.0,61,0.00,,,-99.99,,2013-05-11 23:02:00,
2013-05-11 19:12:00,60.0,47.0,-100.00,WNW,300,5.0,9.0,63,0.00,,,-99.99,,2013-05-11 23:12:00,
2013-05-11 19:22:00,60.0,48.0,-100.00,NNE,25,2.0,9.0,64,0.00,,,-99.99,,2013-05-11 23:22:00,
2013-05-11 19:32:00,61.0,48.0,-100.00,North,0,4.0,11.0,62,0.00,,,-99.99,,2013-05-11 23:32:00,
2013-05-11 19:42:00,61.0,48.0,-100.00,NNW,340,2.0,7.0,63,0.00,,,-99.99,,2013-05-11 23:42:00,
2013-05-11 19:52:00,60.0,48.0,-100.00,NW,325,4.0,7.0,64,0.00,,,-99.99,,2013-05-11 23:52:00,
2013-05-11 20:01:00,60.0,49.0,-100.00,North,0,2.0,6.0,65,0.00,,,-99.99,,2013-05-12 00:01:00,
2013-05-11 20:11:00,59.0,49.0,-100.00,NNW,345,3.0,6.0,67,0.00,,,-99.99,,2013-05-12 00:11:00,
2013-05-11 20:21:00,59.0,48.0,-100.00,NNW,330,4.0,6.0,67,0.00,,,-99.99,,2013-05-12 00:21:00,
2013-05-11 20:32:00,59.0,49.0,-100.00,NW,320,2.0,5.0,68,0.00,,,-99.99,,2013-05-12 00:32:00,
2013-05-11 20:42:00,59.0,49.0,-100.00,NNW,345,2.0,4.0,70,0.00,,,-99.99,,2013-05-12 00:42:00,
2013-05-11 20:52:00,58.0,49.0,-100.00,NW,310,2.0,4.0,70,0.00,,,-99.99,,2013-05-12 00:52:00,
2013-05-11 21:01:00,58.0,49.0,-100.00,NNW,330,1.0,3.0,71,0.00,,,-99.99,,2013-05-12 01:01:00,
2013-05-11 21:11:00,58.0,49.0,-100.00,WNW,300,1.0,3.0,73,0.00,,,-99.99,,2013-05-12 01:11:00,
2013-05-11 21:21:00,57.0,49.0,-100.00,West,270,1.0,3.0,73,0.00,,,-99.99,,2013-05-12 01:21:00,
2013-05-11 21:32:00,57.0,50.0,-100.00,NNW,340,1.0,3.0,77,0.00,,,-99.99,,2013-05-12 01:32:00,
2013-05-11 21:42:00,57.0,50.0,-100.00,NNW,335,1.0,3.0,78,0.00,,,-99.99,,2013-05-12 01:42:00,
2013-05-11 21:52:00,56.0,50.0,-100.00,NNW,340,2.0,3.0,78,0.00,,,-99.99,,2013-05-12 01:52:00,
2013-05-11 22:01:00,56.0,50.0,-100.00,North,0,1.0,2.0,78,0.00,,,-99.99,,2013-05-12 02:01:00,
2013-05-11 22:11:00,56.0,50.0,-100.00,NNW,340,1.0,3.0,78,0.00,,,-99.99,,2013-05-12 02:11:00,
2013-05-11 22:22:00,57.0,49.0,-100.00,North,10,2.0,5.0,77,0.00,,,-99.99,,2013-05-12 02:22:00,
2013-05-11 22:32:00,57.0,49.0,-100.00,North,5,6.0,9.0,73,0.00,,,-99.99,,2013-05-12 02:32:00,
2013-05-11 22:42:00,56.0,46.0,-100.00,East,85,12.0,18.0,71,0.00,,,-99.99,,2013-05-12 02:42:00,
2013-05-11 22:52:00,53.0,42.0,-100.00,ENE,70,8.0,18.0,66,0.00,,,-99.99,,2013-05-12 02:52:00,
2013-05-11 23:01:00,52.0,42.0,-100.00,East,95,9.0,17.0,67,0.00,,,-99.99,,2013-05-12 03:01:00,
2013-05-11 23:11:00,51.0,41.0,-100.00,East,80,7.0,12.0,68,0.00,,,-99.99,,2013-05-12 03:11:00,
2013-05-11 23:22:00,51.0,40.0,-100.00,East,100,6.0,14.0,67,0.00,,,-99.99,,2013-05-12 03:22:00,
2013-05-11 23:33:00,50.0,40.0,-100.00,ENE,65,5.0,11.0,67,0.00,,,-99.99,,2013-05-12 03:33:00,
2013-05-11 23:43:00,50.0,38.0,-100.00,ENE,60,7.0,16.0,65,0.00,,,-99.99,,2013-05-12 03:43:00,
2013-05-11 23:53:00,49.0,38.0,-100.00,East,85,9.0,16.0,64,0.00,,,-99.99,,2013-05-12 03:53:00,